When you browse on this site, cookies collect data to enhance your experience and personalize the content and advertising you see.
Visit our Privacy Policy to learn more. By continuing to use the site, you agree to this use of cookies and data.
  • In Germany
  • List of Countries
  • For 7 days
  • Water Temperature
  • Weather Map
  • Weather Widgets
  • user-avatar
    Login

    Hourly Weather Laszkar Gah

    Today, 19 November, Tuesday

    Time Temperature Precipitation Wind Pressure Humidity
    00:00 +12°C° 0 mm 1 mps 696 mmHg 25%
    01:00 +11°C° 0 mm 1 mps 696 mmHg 26%
    02:00 +12°C° 0 mm 1 mps 696 mmHg 26%
    03:00 +12°C° 0 mm 1 mps 696 mmHg 26%
    04:00 +11°C° 0 mm 1 mps 696 mmHg 27%
    05:00 +12°C° 0 mm 1 mps 696 mmHg 27%
    06:00 +12°C° 0 mm 1 mps 696 mmHg 27%
    07:00 +12°C° 0 mm 1 mps 697 mmHg 27%
    08:00 +13°C° 0 mm 0 mps 697 mmHg 23%
    09:00 +15°C° 0 mm 0 mps 697 mmHg 20%
    10:00 +17°C° 0 mm 0 mps 697 mmHg 16%
    11:00 +18°C° 0 mm 0 mps 697 mmHg 15%
    12:00 +21°C° 0 mm 1 mps 697 mmHg 14%
    13:00 +22°C° 0 mm 1 mps 696 mmHg 12%
    14:00 +22°C° 0 mm 1 mps 696 mmHg 12%
    15:00 +22°C° 0 mm 1 mps 695 mmHg 13%
    16:00 +21°C° 0 mm 1 mps 695 mmHg 13%
    17:00 +20°C° 0 mm 1 mps 695 mmHg 14%
    18:00 +18°C° 0 mm 1 mps 695 mmHg 16%
    19:00 +15°C° 0 mm 1 mps 695 mmHg 17%
    20:00 +15°C° 0 mm 1 mps 695 mmHg 17%
    21:00 +15°C° 0 mm 1 mps 694 mmHg 17%
    22:00 +15°C° 0 mm 1 mps 694 mmHg 17%
    23:00 +15°C° 0 mm 1 mps 694 mmHg 18%

    Tomorrow, 20 November, Wednesday

    Time Temperature Precipitation Wind Pressure Humidity
    00:00 +15°C° 0 mm 1 mps 694 mmHg 18%
    01:00 +14°C° 0 mm 1 mps 694 mmHg 18%
    02:00 +15°C° 0 mm 2 mps 694 mmHg 18%
    03:00 +15°C° 0 mm 2 mps 693 mmHg 18%
    04:00 +15°C° 0 mm 2 mps 693 mmHg 18%
    05:00 +15°C° 0 mm 2 mps 693 mmHg 18%
    06:00 +16°C° 0 mm 2 mps 694 mmHg 19%
    07:00 +16°C° 0 mm 2 mps 694 mmHg 19%
    08:00 +17°C° 0 mm 3 mps 694 mmHg 18%
    09:00 +18°C° 0 mm 3 mps 695 mmHg 17%
    10:00 +19°C° 0 mm 4 mps 695 mmHg 16%
    11:00 +18°C° 0.3 mm 4 mps 694 mmHg 24%
    12:00 +15°C° 0.3 mm 5 mps 694 mmHg 33%
    13:00 +14°C° 0.3 mm 5 mps 693 mmHg 42%
    14:00 +12°C° 0.8 mm 7 mps 693 mmHg 52%
    15:00 +12°C° 0.8 mm 8 mps 693 mmHg 61%
    16:00 +11°C° 0.8 mm 9 mps 693 mmHg 70%
    17:00 +11°C° 0 mm 9 mps 693 mmHg 68%
    18:00 +12°C° 0 mm 9 mps 693 mmHg 66%
    19:00 +12°C° 0 mm 8 mps 694 mmHg 63%
    20:00 +12°C° 0 mm 8 mps 693 mmHg 62%
    21:00 +12°C° 0 mm 8 mps 693 mmHg 61%
    22:00 +12°C° 0 mm 7 mps 693 mmHg 59%
    23:00 +12°C° 0.1 mm 7 mps 693 mmHg 58%

    Day after tomorrow, 21 November, Thursday

    Time Temperature Precipitation Wind Pressure Humidity
    00:00 +14°C° 0.1 mm 6 mps 692 mmHg 56%
    01:00 +14°C° 0.1 mm 6 mps 692 mmHg 55%
    02:00 +14°C° 0.2 mm 5 mps 692 mmHg 59%
    03:00 +13°C° 0.2 mm 5 mps 692 mmHg 64%
    04:00 +13°C° 0.2 mm 5 mps 692 mmHg 68%
    05:00 +13°C° 2.1 mm 6 mps 692 mmHg 73%
    06:00 +11°C° 2.1 mm 6 mps 693 mmHg 78%
    07:00 +11°C° 2.1 mm 7 mps 693 mmHg 83%
    08:00 +12°C° 0.5 mm 7 mps 693 mmHg 79%
    09:00 +14°C° 0.5 mm 7 mps 694 mmHg 74%
    10:00 +15°C° 0.5 mm 8 mps 694 mmHg 70%
    11:00 +16°C° 0.3 mm 7 mps 694 mmHg 66%
    12:00 +17°C° 0.3 mm 6 mps 693 mmHg 63%
    13:00 +17°C° 0.3 mm 6 mps 693 mmHg 59%
    14:00 +17°C° 0.7 mm 6 mps 693 mmHg 61%
    15:00 +17°C° 0.7 mm 7 mps 693 mmHg 62%
    16:00 +16°C° 0.7 mm 7 mps 692 mmHg 64%
    17:00 +16°C° 3 mm 6 mps 693 mmHg 70%
    18:00 +15°C° 3 mm 5 mps 693 mmHg 76%
    19:00 +14°C° 3 mm 5 mps 693 mmHg 83%
    20:00 +14°C° 0.6 mm 4 mps 694 mmHg 80%
    21:00 +14°C° 0.6 mm 4 mps 694 mmHg 77%
    22:00 +14°C° 0.6 mm 4 mps 695 mmHg 74%
    23:00 +13°C° 0 mm 4 mps 695 mmHg 70%

    22 November, Friday

    Time Temperature Precipitation Wind Pressure Humidity
    00:00 +12°C° 0 mm 5 mps 695 mmHg 67%
    01:00 +10°C° 0 mm 5 mps 695 mmHg 64%
    02:00 +9°C° 0 mm 5 mps 696 mmHg 66%
    03:00 +10°C° 0 mm 4 mps 696 mmHg 68%
    04:00 +9°C° 0 mm 3 mps 696 mmHg 70%
    05:00 +9°C° 0 mm 3 mps 697 mmHg 71%
    06:00 +8°C° 0 mm 2 mps 697 mmHg 71%
    07:00 +8°C° 0 mm 2 mps 698 mmHg 72%
    08:00 +9°C° 0 mm 2 mps 698 mmHg 68%
    09:00 +9°C° 0 mm 2 mps 698 mmHg 65%
    10:00 +10°C° 0 mm 2 mps 699 mmHg 62%
    11:00 +12°C° 0 mm 2 mps 698 mmHg 58%
    12:00 +13°C° 0 mm 2 mps 698 mmHg 54%
    13:00 +13°C° 0 mm 2 mps 697 mmHg 50%
    14:00 +13°C° 0 mm 2 mps 697 mmHg 50%
    15:00 +13°C° 0 mm 2 mps 697 mmHg 49%
    16:00 +13°C° 0 mm 2 mps 697 mmHg 48%
    17:00 +13°C° 0 mm 2 mps 697 mmHg 51%
    18:00 +13°C° 0 mm 2 mps 697 mmHg 54%
    19:00 +12°C° 0 mm 2 mps 697 mmHg 56%
    20:00 +12°C° 0 mm 2 mps 698 mmHg 58%
    21:00 +12°C° 0 mm 2 mps 698 mmHg 59%
    22:00 +10°C° 0 mm 2 mps 698 mmHg 60%
    23:00 +11°C° 0 mm 1 mps 698 mmHg 62%

    23 November, Saturday

    Time Temperature Precipitation Wind Pressure Humidity
    00:00 +11°C° 0 mm 1 mps 698 mmHg 63%
    01:00 +10°C° 0 mm 1 mps 698 mmHg 65%
    02:00 +10°C° 0 mm 1 mps 698 mmHg 66%
    03:00 +10°C° 0 mm 1 mps 698 mmHg 66%
    04:00 +9°C° 0 mm 1 mps 698 mmHg 67%
    05:00 +10°C° 0 mm 1 mps 698 mmHg 67%
    06:00 +10°C° 0 mm 1 mps 699 mmHg 66%
    07:00 +10°C° 0 mm 1 mps 699 mmHg 66%
    08:00 +11°C° 0 mm 1 mps 699 mmHg 61%
    09:00 +11°C° 0 mm 1 mps 700 mmHg 57%
    10:00 +12°C° 0 mm 1 mps 700 mmHg 52%
    11:00 +13°C° 0 mm 1 mps 699 mmHg 50%
    12:00 +14°C° 0 mm 1 mps 699 mmHg 47%
    13:00 +14°C° 0 mm 1 mps 698 mmHg 44%
    14:00 +14°C° 0 mm 1 mps 698 mmHg 44%
    15:00 +14°C° 0 mm 1 mps 698 mmHg 44%
    16:00 +14°C° 0 mm 1 mps 698 mmHg 43%
    17:00 +14°C° 0 mm 1 mps 698 mmHg 46%
    18:00 +14°C° 0 mm 1 mps 698 mmHg 49%
    19:00 +13°C° 0 mm 1 mps 698 mmHg 52%
    20:00 +13°C° 0 mm 1 mps 698 mmHg 53%
    21:00 +13°C° 0 mm 1 mps 698 mmHg 54%
    22:00 +12°C° 0 mm 1 mps 698 mmHg 55%
    23:00 +12°C° 0 mm 2 mps 698 mmHg 57%

    24 November, Sunday

    Time Temperature Precipitation Wind Pressure Humidity
    00:00 +10°C° 0 mm 2 mps 698 mmHg 59%
    01:00 +10°C° 0 mm 2 mps 698 mmHg 60%
    02:00 +10°C° 0 mm 2 mps 698 mmHg 62%
    03:00 +9°C° 0 mm 2 mps 697 mmHg 63%
    04:00 +9°C° 0 mm 2 mps 697 mmHg 64%
    05:00 +9°C° 0 mm 2 mps 698 mmHg 64%
    06:00 +10°C° 0 mm 1 mps 698 mmHg 63%
    07:00 +10°C° 0 mm 1 mps 698 mmHg 63%
    08:00 +11°C° 0 mm 1 mps 698 mmHg 58%
    09:00 +12°C° 0 mm 1 mps 699 mmHg 53%
    10:00 +13°C° 0 mm 1 mps 699 mmHg 48%
    11:00 +14°C° 0 mm 2 mps 698 mmHg 45%
    12:00 +15°C° 0 mm 2 mps 698 mmHg 42%
    13:00 +15°C° 0 mm 2 mps 697 mmHg 39%
    14:00 +15°C° 0 mm 2 mps 697 mmHg 39%
    15:00 +15°C° 0 mm 2 mps 697 mmHg 38%
    16:00 +16°C° 0 mm 2 mps 697 mmHg 38%
    17:00 +15°C° 0 mm 2 mps 697 mmHg 40%
    18:00 +14°C° 0 mm 2 mps 697 mmHg 42%
    19:00 +14°C° 0 mm 2 mps 697 mmHg 45%
    20:00 +13°C° 0 mm 2 mps 697 mmHg 45%
    21:00 +13°C° 0 mm 2 mps 697 mmHg 46%
    22:00 +12°C° 0 mm 2 mps 697 mmHg 46%
    23:00 +12°C° 0 mm 2 mps 696 mmHg 47%
    Show more